Hourly Data Report for September 28, 2020

OTTAWA INTL A
ONTARIO
Current Station Operator: NAVCAN

45°19'00.000" N
75°40'00.000" W
114.90 m
6106001
71628
YOW

Download Data

Hourly Data (September 2020)
Hourly Data Report for September 28, 2020
TIME Temp Definition
°C
Dew Point Definition
°C
Rel Hum Definition
%
Wind Dir Definition
10's deg

Wind Spd Definition
km/h
Visibility Definition
km
Stn Press Definition
kPa
Hmdx Definition


Wind Chill Definition


Weather Definition


00:00 17.8 15.3 85 17 12 24.1 99.53     LegendNANA
01:00 17.5 15.6 88 16 11 24.1 99.56     Mainly Clear
02:00 17.8 15.6 87 17 12 24.1 99.54     LegendNANA
03:00 17.1 15.3 90 17 6 24.1 99.53     LegendNANA
04:00 16.9 15.4 91 17 9 24.1 99.53     Mostly Cloudy
05:00 16.7 15.5 93 16 5 24.1 99.52     LegendNANA
06:00 14.9 14.6 98 10 7 24.1 99.54     LegendNANA
07:00 15.7 15.3 97 6 7 24.1 99.53     Mostly Cloudy
08:00 17.5 16.4 93 10 6 24.1 99.54     LegendNANA
09:00 19.2 17.4 89 11 4 24.1 99.55     LegendNANA
10:00 20.3 17.3 83 16 12 24.1 99.54 26   Mostly Cloudy
11:00 23.6 17.7 69 15 19 24.1 99.45 29   LegendNANA
12:00 24.6 17.6 65 14 20 24.1 99.40 30   LegendNANA
13:00 25.9 17.1 58 17 14 24.1 99.33 31   Mostly Cloudy
14:00 25.7 16.3 56 19 16 24.1 99.29 31   LegendNANA
15:00 25.6 15.8 54 20 21 24.1 99.29 30   LegendNANA
16:00 26.1 15.7 52 20 21 24.1 99.24 31   Mainly Clear
17:00 24.5 15.2 56 20 14 24.1 99.23 29   LegendNANA
18:00 22.6 15.3 63 18 7 24.1 99.22 27   LegendNANA
19:00 20.7 15.6 72 15 8 24.1 99.20 25   Mostly Cloudy
20:00 20.6 16.1 75 11 14 24.1 99.16 25   LegendNANA
21:00 21.0 17.8 82 13 14 24.1 99.15 27   LegendNANA
22:00 21.0 16.2 74 16 17 24.1 99.13 26   Mostly Cloudy
23:00 21.8 16.2 70 16 16 24.1 99.12 27   LegendNANA

Notes on Data Quality.

Legend

  • E = Estimated
  • M = Missing
  • NA = Not Available*
  • [empty] = Indicates an unobserved value
Date modified: